[Date Prev][Date Next][Thread Prev][Thread Next] - [Date Index][Thread Index][Author Index]
2 Line ISS Keps 3-21
- Subject: [sarex] 2 Line ISS Keps 3-21
- From: "Dave Larsen Ph.D." <doc@xxxxxxxxxxx>
- Date: Fri, 21 Mar 2003 00:34:46 -0800
ISS
1 25544U 98067A 03080.16500113 .00016025 00000-0 20773-3 0 8027
2 25544 51.6337 102.3334 0008251 353.2016 113.9836 15.59001262247273
----
Via the sarex mailing list at AMSAT.ORG courtesy of AMSAT-NA.
To unsubscribe, send "unsubscribe sarex" to Majordomo@amsat.org
AMSAT Home